,,Stat6,,Stat2,,Stat8,,Stat9,,Stat10,,Wind1,,Wind1,
time,status,PA1M_AVG,status,PR1M_SUM,status,RH1M_AVG,status,SR1M_AVG,status,TA1M_AVG,status,W1dAve1m,status,W1sAve1m,
2008-02-20, 07:00:01,VALID,918.324,VALID,0,VALID,95.7417,VALID,39.0559,VALID,17.998,VALID,124,VALID,0,
2008-02-20, 07:01:01,VALID,918.338,VALID,0,VALID,96.0189,VALID,40.5672,VALID,17.9591,VALID,124,VALID,0,
2008-02-20, 07:02:00,VALID,918.358,VALID,0,VALID,96.1041,VALID,42.1464,VALID,17.9301,VALID,124,VALID,0,
2008-02-20, 07:03:00,VALID,918.362,VALID,0,VALID,96.2961,VALID,43.7256,VALID,17.9007,VALID,124,VALID,0,
2008-02-20, 07:04:00,VALID,918.358,VALID,0,VALID,96.5008,VALID,45.2879,VALID,17.8588,VALID,124,VALID,0,
2008-02-20, 07:05:00,VALID,918.355,VALID,0,VALID,96.806,VALID,46.952,VALID,17.8391,VALID,124,VALID,0,
2008-02-20, 07:06:01,VALID,918.333,VALID,0,VALID,97.1366,VALID,48.752,VALID,17.8553,VALID,124,VALID,0.178735,
2008-02-20, 07:07:00,VALID,918.317,VALID,0,VALID,97.1658,VALID,50.518,VALID,17.8979,VALID,124,VALID,0.894354,
2008-02-20, 07:08:00,VALID,918.312,VALID,0,VALID,97.1582,VALID,52.267,VALID,17.9336,VALID,123,VALID,1.15407,
2008-02-20, 07:09:01,VALID,918.323,VALID,0,VALID,97.0946,VALID,54.4066,VALID,17.969,VALID,119,VALID,0.85074,
2008-02-20, 07:10:00,VALID,918.341,VALID,0,VALID,96.984,VALID,56.9877,VALID,18.0114,VALID,132,VALID,0.816406,
2008-02-20, 07:11:00,VALID,918.383,VALID,0,VALID,96.9039,VALID,59.2801,VALID,18.0404,VALID,152,VALID,1.00302,
2008-02-20, 07:12:00,VALID,918.394,VALID,0,VALID,96.839,VALID,61.5215,VALID,18.0793,VALID,149,VALID,1.15123,
2008-02-20, 07:13:00,VALID,918.409,VALID,0,VALID,96.8187,VALID,63.8819,VALID,18.1113,VALID,154,VALID,0.673781,
2008-02-20, 07:14:01,VALID,918.443,VALID,0,VALID,96.7488,VALID,66.3781,VALID,18.137,VALID,159,VALID,1.15225,
2008-02-20, 07:15:01,VALID,918.448,VALID,0,VALID,96.7984,VALID,69.0271,VALID,18.1497,VALID,165,VALID,1.27896,
2008-02-20, 07:16:00,VALID,918.456,VALID,0,VALID,96.9853,VALID,71.9648,VALID,18.1497,VALID,159,VALID,1.19931,
2008-02-20, 07:17:01,VALID,918.486,VALID,0,VALID,97.2638,VALID,74.6477,VALID,18.1342,VALID,167,VALID,0.95918,
2008-02-20, 07:18:01,VALID,918.518,VALID,0,VALID,97.5346,VALID,77.0081,VALID,18.0978,VALID,151,VALID,0.886083,
2008-02-20, 07:19:00,VALID,918.529,VALID,0,VALID,97.78,VALID,79.0797,VALID,18.0717,VALID,142,VALID,0.790153,
2008-02-20, 07:20:01,VALID,918.549,VALID,0,VALID,98.0038,VALID,80.6589,VALID,18.0818,VALID,149,VALID,0.648793,
2008-02-20, 07:21:01,VALID,918.549,VALID,0,VALID,98.075,VALID,82.391,VALID,18.0816,VALID,146,VALID,0.696837,
2008-02-20, 07:22:01,VALID,918.547,VALID,0,VALID,98.0789,VALID,84.2928,VALID,18.1113,VALID,150,VALID,0.867014,
2008-02-20, 07:23:00,VALID,918.561,VALID,0,VALID,97.9644,VALID,86.3815,VALID,18.143,VALID,147,VALID,0.628348,
2008-02-20, 07:24:00,VALID,918.589,VALID,0,VALID,97.8385,VALID,88.606,VALID,18.1949,VALID,154,VALID,0.361919,
2008-02-20, 07:25:01,VALID,918.614,VALID,0,VALID,97.6796,VALID,90.8305,VALID,18.2574,VALID,152,VALID,0.491443,
2008-02-20, 07:26:00,VALID,918.625,VALID,0,VALID,97.6402,VALID,93.1059,VALID,18.3155,VALID,159,VALID,0.0122768,
2008-02-20, 07:27:01,VALID,918.643,VALID,0,VALID,97.3413,VALID,95.3813,VALID,18.3742,VALID,137,VALID,0.71503,
2008-02-20, 07:28:00,VALID,918.635,VALID,0,VALID,97.1252,VALID,97.6737,VALID,18.4256,VALID,147,VALID,0.982376,
2008-02-20, 07:29:01,VALID,918.637,VALID,0,VALID,96.8111,VALID,99.9831,VALID,18.4745,VALID,153,VALID,0.657774,
2008-02-20, 07:30:00,VALID,918.632,VALID,0,VALID,96.2897,VALID,102.276,VALID,18.5231,VALID,140,VALID,1.01065,
2008-02-20, 07:31:01,VALID,918.64,VALID,0,VALID,95.9235,VALID,104.364,VALID,18.5845,VALID,142,VALID,1.11737,
2008-02-20, 07:32:01,VALID,918.651,VALID,0,VALID,95.837,VALID,106.283,VALID,18.6695,VALID,159,VALID,0.972942,
2008-02-20, 07:33:01,VALID,918.669,VALID,0,VALID,95.397,VALID,108.117,VALID,18.7084,VALID,155,VALID,1.20065,
2008-02-20, 07:34:01,VALID,918.695,VALID,0,VALID,95.2406,VALID,109.9,VALID,18.7434,VALID,164,VALID,0.745833,
2008-02-20, 07:35:01,VALID,918.714,VALID,0,VALID,95.1821,VALID,111.581,VALID,18.7918,VALID,177,VALID,0.637607,
2008-02-20, 07:36:01,VALID,918.714,VALID,0,VALID,95.0016,VALID,107.506,VALID,18.824,VALID,165,VALID,0.56436,
2008-02-20, 07:37:01,VALID,918.714,VALID,0,VALID,94.938,VALID,108.728,VALID,18.8864,VALID,160,VALID,0.595749,
2008-02-20, 07:38:01,VALID,918.719,VALID,0,VALID,94.8007,VALID,108.049,VALID,18.9355,VALID,176,VALID,0.621911,
2008-02-20, 07:39:00,VALID,918.738,VALID,0,VALID,94.7117,VALID,112.906,VALID,18.9769,VALID,185,VALID,0.630469,
2008-02-20, 07:40:00,VALID,918.763,VALID,0,VALID,94.5959,VALID,118.475,VALID,19.0198,VALID,169,VALID,0.712612,
2008-02-20, 07:41:00,VALID,918.789,VALID,0,VALID,94.4878,VALID,119.766,VALID,19.0488,VALID,177,VALID,0.562322,
2008-02-20, 07:42:00,VALID,918.794,VALID,0,VALID,94.278,VALID,121.022,VALID,19.0717,VALID,158,VALID,0.652166,
2008-02-20, 07:43:00,VALID,918.798,VALID,0,VALID,94.3111,VALID,122.092,VALID,19.075,VALID,153,VALID,0.349964,
2008-02-20, 07:44:00,VALID,918.781,VALID,0,VALID,94.0759,VALID,122.941,VALID,19.0745,VALID,151,VALID,1.04215,
2008-02-20, 07:45:00,VALID,918.772,VALID,0,VALID,93.9957,VALID,123.909,VALID,19.0652,VALID,145,VALID,0.961319,
2008-02-20, 07:46:00,VALID,918.754,VALID,0,VALID,94.4065,VALID,124.894,VALID,19.0782,VALID,130,VALID,0.770531,
2008-02-20, 07:47:00,VALID,918.757,VALID,0,VALID,94.3709,VALID,125.624,VALID,19.0782,VALID,123,VALID,0.667151,
2008-02-20, 07:48:00,VALID,918.774,VALID,0,VALID,94.6964,VALID,125.845,VALID,19.0974,VALID,103,VALID,0.181055,
2008-02-20, 07:49:00,VALID,918.799,VALID,0,VALID,94.718,VALID,125.828,VALID,19.1593,VALID,170,VALID,0,
2008-02-20, 07:50:00,VALID,918.834,VALID,0,VALID,94.526,VALID,125.828,VALID,19.1878,VALID,151,VALID,0,
2008-02-20, 07:51:00,VALID,918.859,VALID,0,VALID,94.5451,VALID,125.811,VALID,19.2501,VALID,137,VALID,0.0517113,
2008-02-20, 07:52:00,VALID,918.879,VALID,0,VALID,94.3238,VALID,126.083,VALID,19.2763,VALID,110,VALID,0.679315,
2008-02-20, 07:53:00,VALID,918.91,VALID,0,VALID,94.2628,VALID,126.864,VALID,19.3085,VALID,128,VALID,0.243641,
2008-02-20, 07:54:00,VALID,918.923,VALID,0,VALID,93.8991,VALID,127.866,VALID,19.3345,VALID,119,VALID,0.653846,
2008-02-20, 07:55:00,VALID,918.95,VALID,0,VALID,93.524,VALID,129.037,VALID,19.3507,VALID,124,VALID,0.861421,
2008-02-20, 07:56:00,VALID,918.967,VALID,0,VALID,93.819,VALID,130.056,VALID,19.4091,VALID,163,VALID,0.265625,
2008-02-20, 07:57:00,VALID,919.002,VALID,0,VALID,93.7096,VALID,131.635,VALID,19.4475,VALID,133,VALID,0.000181686,
2008-02-20, 07:58:00,VALID,919.024,VALID,0,VALID,93.4947,VALID,133.283,VALID,19.4964,VALID,137,VALID,0.327567,
2008-02-20, 07:59:00,VALID,919.034,VALID,0,VALID,93.3409,VALID,134.896,VALID,19.5226,VALID,162,VALID,0.657203,
2008-02-20, 08:00:00,VALID,919.055,VALID,0,VALID,93.0776,VALID,136.645,VALID,19.5551,VALID,169,VALID,0.707775,
2008-02-20, 08:01:00,VALID,919.1,VALID,0,VALID,92.9607,VALID,138.615,VALID,19.6007,VALID,173,VALID,0.507465,
2008-02-20, 08:02:00,VALID,919.133,VALID,0,VALID,92.6695,VALID,140.788,VALID,19.607,VALID,164,VALID,0.140997,
2008-02-20, 08:03:00,VALID,919.156,VALID,0,VALID,92.6593,VALID,142.996,VALID,19.6758,VALID,164,VALID,0.146528,
2008-02-20, 08:04:00,VALID,919.177,VALID,0,VALID,91.8989,VALID,145.492,VALID,19.6981,VALID,170,VALID,0.877431,
2008-02-20, 08:05:00,VALID,919.187,VALID,0,VALID,91.3915,VALID,148.582,VALID,19.7215,VALID,158,VALID,0.630556,
2008-02-20, 08:06:00,VALID,919.217,VALID,0,VALID,91.9027,VALID,152.012,VALID,19.7692,VALID,163,VALID,0.219494,
2008-02-20, 08:07:00,VALID,919.242,VALID,0,VALID,91.9281,VALID,156.665,VALID,19.8476,VALID,185,VALID,0.325707,
2008-02-20, 08:08:00,VALID,919.249,VALID,0,VALID,91.5848,VALID,163.678,VALID,19.8897,VALID,184,VALID,0.694568,
2008-02-20, 08:09:00,VALID,919.27,VALID,0,VALID,91.3165,VALID,171.184,VALID,19.9284,VALID,182,VALID,0.932351,
2008-02-20, 08:10:00,VALID,919.291,VALID,0,VALID,90.434,VALID,181.746,VALID,19.9382,VALID,162,VALID,1.05376,
2008-02-20, 08:11:00,VALID,919.305,VALID,0,VALID,90.0372,VALID,192.563,VALID,19.9481,VALID,161,VALID,0.849927,
2008-02-20, 08:12:00,VALID,919.319,VALID,0,VALID,89.9024,VALID,206.096,VALID,19.9738,VALID,158,VALID,1.02439,
2008-02-20, 08:13:00,VALID,919.336,VALID,0,VALID,90.2725,VALID,219.409,VALID,20.0487,VALID,175,VALID,0.525213,
2008-02-20, 08:14:00,VALID,919.335,VALID,0,VALID,90.7481,VALID,230.294,VALID,20.1555,VALID,181,VALID,0.868075,
2008-02-20, 08:15:00,VALID,919.347,VALID,0,VALID,90.6883,VALID,240.89,VALID,20.2824,VALID,191,VALID,0.936756,
2008-02-20, 08:16:00,VALID,919.359,VALID,0,VALID,90.392,VALID,247.326,VALID,20.37,VALID,176,VALID,0.821615,
2008-02-20, 08:17:00,VALID,919.377,VALID,0,VALID,90.1898,VALID,250.162,VALID,20.4549,VALID,191,VALID,0.705031,
2008-02-20, 08:18:00,VALID,919.383,VALID,0,VALID,89.685,VALID,255.816,VALID,20.5095,VALID,174,VALID,0.831101,
2008-02-20, 08:19:00,VALID,919.381,VALID,0,VALID,89.8211,VALID,263.661,VALID,20.5844,VALID,162,VALID,0.859549,
2008-02-20, 08:20:00,VALID,919.368,VALID,0,VALID,88.8445,VALID,261.454,VALID,20.552,VALID,156,VALID,1.29992,
2008-02-20, 08:21:00,VALID,919.391,VALID,0,VALID,89.6926,VALID,260.418,VALID,20.5327,VALID,161,VALID,0.855129,
2008-02-20, 08:22:00,VALID,919.397,VALID,0,VALID,89.3887,VALID,261.81,VALID,20.5474,VALID,159,VALID,1.03468,
2008-02-20, 08:23:00,VALID,919.411,VALID,0,VALID,88.9398,VALID,263.39,VALID,20.5179,VALID,162,VALID,1.13988,
2008-02-20, 08:24:00,VALID,919.415,VALID,0,VALID,89.4103,VALID,260.248,VALID,20.5312,VALID,147,VALID,0.979611,
2008-02-20, 08:25:00,VALID,919.404,VALID,0,VALID,89.4968,VALID,257.48,VALID,20.5377,VALID,164,VALID,1.2096,
2008-02-20, 08:26:00,VALID,919.385,VALID,0,VALID,89.8338,VALID,257.361,VALID,20.5669,VALID,145,VALID,0.809152,
2008-02-20, 08:27:00,VALID,919.372,VALID,0,VALID,89.1128,VALID,255.069,VALID,20.5739,VALID,168,VALID,1.54941,
2008-02-20, 08:28:00,VALID,919.357,VALID,0,VALID,89.5591,VALID,250.909,VALID,20.5455,VALID,171,VALID,0.908717,
2008-02-20, 08:29:00,VALID,919.346,VALID,0,VALID,90.1491,VALID,249.126,VALID,20.6009,VALID,190,VALID,0.62862,
2008-02-20, 08:30:00,VALID,919.36,VALID,0,VALID,89.4701,VALID,251.843,VALID,20.6498,VALID,155,VALID,1.01062,
2008-02-20, 08:31:00,VALID,919.356,VALID,0,VALID,88.9055,VALID,253.626,VALID,20.6204,VALID,159,VALID,1.44866,
2008-02-20, 08:32:00,VALID,919.375,VALID,0,VALID,88.7745,VALID,255.103,VALID,20.5557,VALID,164,VALID,1.2074,
2008-02-20, 08:33:00,VALID,919.372,VALID,0,VALID,89.6329,VALID,256.224,VALID,20.5557,VALID,125,VALID,0.457961,
2008-02-20, 08:34:00,VALID,919.365,VALID,0,VALID,89.1179,VALID,259.705,VALID,20.6009,VALID,148,VALID,1.18229,
2008-02-20, 08:35:00,VALID,919.392,VALID,0,VALID,89.6469,VALID,266.208,VALID,20.6009,VALID,146,VALID,0.734561,
2008-02-20, 08:36:00,VALID,919.421,VALID,0,VALID,89.5756,VALID,269.673,VALID,20.6728,VALID,165,VALID,0.879167,
2008-02-20, 08:37:00,VALID,919.454,VALID,0,VALID,89.4129,VALID,273.103,VALID,20.7242,VALID,169,VALID,0.990748,
2008-02-20, 08:38:00,VALID,919.496,VALID,0,VALID,88.3129,VALID,283.138,VALID,20.7375,VALID,164,VALID,1.17987,
2008-02-20, 08:39:00,VALID,919.504,VALID,0,VALID,88.1858,VALID,296.214,VALID,20.7819,VALID,175,VALID,0.917696,
2008-02-20, 08:40:00,VALID,919.529,VALID,0,VALID,88.1451,VALID,301.257,VALID,20.8335,VALID,162,VALID,0.955078,
2008-02-20, 08:41:00,VALID,919.525,VALID,0,VALID,88.1324,VALID,266.141,VALID,20.9309,VALID,177,VALID,0.871394,
2008-02-20, 08:42:00,VALID,919.527,VALID,0,VALID,87.4419,VALID,257.294,VALID,20.9901,VALID,169,VALID,1.09318,
2008-02-20, 08:43:00,VALID,919.524,VALID,0,VALID,87.2461,VALID,317.592,VALID,20.9617,VALID,169,VALID,1.40168,
2008-02-20, 08:44:00,VALID,919.525,VALID,0,VALID,87.7661,VALID,313.177,VALID,20.9614,VALID,146,VALID,0.892773,
2008-02-20, 08:45:00,VALID,919.554,VALID,0,VALID,87.8577,VALID,305.74,VALID,21.0006,VALID,172,VALID,1.23958,
2008-02-20, 08:46:00,VALID,919.554,VALID,0,VALID,87.3249,VALID,299.61,VALID,20.9909,VALID,168,VALID,1.58775,
2008-02-20, 08:47:00,VALID,919.556,VALID,0,VALID,88.5584,VALID,317.134,VALID,21.0271,VALID,156,VALID,0.696378,
2008-02-20, 08:48:00,VALID,919.547,VALID,0,VALID,87.3821,VALID,337.12,VALID,21.0655,VALID,167,VALID,0.937682,
2008-02-20, 08:49:00,VALID,919.528,VALID,0,VALID,86.932,VALID,290.423,VALID,21.0723,VALID,141,VALID,1.14063,
2008-02-20, 08:50:00,VALID,919.534,VALID,0,VALID,87.4508,VALID,328.307,VALID,21.082,VALID,134,VALID,0.734756,
2008-02-20, 08:51:00,VALID,919.552,VALID,0,VALID,88.2786,VALID,391.136,VALID,21.2116,VALID,156,VALID,0.548118,
2008-02-20, 08:52:00,VALID,919.554,VALID,0,VALID,86.0482,VALID,393.497,VALID,21.3485,VALID,167,VALID,1.50572,
2008-02-20, 08:53:00,VALID,919.548,VALID,0,VALID,85.5103,VALID,305.078,VALID,21.4261,VALID,177,VALID,0.595312,
2008-02-20, 08:54:00,VALID,919.549,VALID,0,VALID,84.5833,VALID,318.543,VALID,21.54,VALID,162,VALID,0.879925,
2008-02-20, 08:55:00,VALID,919.546,VALID,0,VALID,84.371,VALID,363.254,VALID,21.6239,VALID,165,VALID,1.03163,
2008-02-20, 08:56:00,VALID,919.552,VALID,0,VALID,83.4567,VALID,390.304,VALID,21.6832,VALID,164,VALID,1.39955,
2008-02-20, 08:57:00,VALID,919.553,VALID,0,VALID,82.5513,VALID,422.279,VALID,21.7124,VALID,165,VALID,1.51672,
2008-02-20, 08:58:00,VALID,919.572,VALID,0,VALID,82.5704,VALID,450.552,VALID,21.6845,VALID,167,VALID,1.56059,
2008-02-20, 08:59:00,VALID,919.573,VALID,0,VALID,83.5292,VALID,474.801,VALID,21.7429,VALID,130,VALID,0.992006,
2008-02-20, 09:00:00,VALID,919.588,VALID,0,VALID,83.7797,VALID,480.71,VALID,21.8598,VALID,155,VALID,0.975419,
2008-02-20, 09:01:00,VALID,919.596,VALID,0,VALID,82.8934,VALID,480.49,VALID,22.0419,VALID,183,VALID,1.09394,
2008-02-20, 09:02:00,VALID,919.605,VALID,0,VALID,81.5137,VALID,481.339,VALID,22.185,VALID,179,VALID,0.991097,
2008-02-20, 09:03:00,VALID,919.603,VALID,0,VALID,81.3827,VALID,490.118,VALID,22.3795,VALID,168,VALID,0.678163,
2008-02-20, 09:04:00,VALID,919.607,VALID,0,VALID,81.0432,VALID,508.457,VALID,22.5552,VALID,173,VALID,1.03795,
2008-02-20, 09:05:00,VALID,919.584,VALID,0,VALID,80.6388,VALID,528.613,VALID,22.7205,VALID,169,VALID,0.502232,
2008-02-20, 09:06:00,VALID,919.586,VALID,0,VALID,79.8135,VALID,540.449,VALID,22.8734,VALID,145,VALID,0.887649,
2008-02-20, 09:07:00,VALID,919.569,VALID,0,VALID,81.5327,VALID,530.906,VALID,22.9289,VALID,102,VALID,0.87064,
2008-02-20, 09:08:00,VALID,919.567,VALID,0,VALID,81.3433,VALID,527.357,VALID,22.8637,VALID,67,VALID,1.57104,
2008-02-20, 09:09:00,VALID,919.554,VALID,0,VALID,80.4442,VALID,532.383,VALID,22.6012,VALID,77,VALID,1.97842,
2008-02-20, 09:10:00,VALID,919.573,VALID,0,VALID,80.3184,VALID,519.885,VALID,22.3577,VALID,59,VALID,1.96742,
2008-02-20, 09:11:00,VALID,919.58,VALID,0,VALID,81.3217,VALID,509.272,VALID,22.306,VALID,58,VALID,1.90547,
2008-02-20, 09:12:00,VALID,919.592,VALID,0,VALID,81.005,VALID,519.189,VALID,22.2113,VALID,54,VALID,1.77656,
2008-02-20, 09:13:00,VALID,919.602,VALID,0,VALID,81.885,VALID,516.047,VALID,22.3642,VALID,52,VALID,0.885045,
2008-02-20, 09:14:00,VALID,919.601,VALID,0,VALID,82.7013,VALID,501.682,VALID,22.5525,VALID,73,VALID,1.06715,
2008-02-20, 09:15:00,VALID,919.598,VALID,0,VALID,82.4241,VALID,503.074,VALID,22.7411,VALID,38,VALID,1.38976,
2008-02-20, 09:16:00,VALID,919.617,VALID,0,VALID,81.0101,VALID,496.35,VALID,22.9068,VALID,107,VALID,1.47002,
2008-02-20, 09:17:00,VALID,919.633,VALID,0,VALID,79.9598,VALID,490.576,VALID,22.8613,VALID,148,VALID,1.09482,
2008-02-20, 09:18:00,VALID,919.629,VALID,0,VALID,80.0399,VALID,490.389,VALID,22.9065,VALID,162,VALID,1.10192,
2008-02-20, 09:19:00,VALID,919.638,VALID,0,VALID,80.5002,VALID,497.623,VALID,23.0012,VALID,140,VALID,0.951882,
2008-02-20, 09:20:00,VALID,919.652,VALID,0,VALID,79.7716,VALID,506.623,VALID,22.9525,VALID,136,VALID,1.63849,
2008-02-20, 09:21:00,VALID,919.661,VALID,0,VALID,79.8479,VALID,505.468,VALID,22.8161,VALID,149,VALID,1.65025,
2008-02-20, 09:22:00,VALID,919.664,VALID,0,VALID,81.1894,VALID,508.61,VALID,22.7512,VALID,116,VALID,0.743555,
2008-02-20, 09:23:00,VALID,919.658,VALID,0,VALID,81.1869,VALID,511.31,VALID,22.8876,VALID,175,VALID,0.51734,
2008-02-20, 09:24:00,VALID,919.653,VALID,0,VALID,80.3692,VALID,502.072,VALID,23.1477,VALID,194,VALID,0.588034,
2008-02-20, 09:25:00,VALID,919.659,VALID,0,VALID,78.4288,VALID,518.17,VALID,23.3012,VALID,170,VALID,1.44188,
2008-02-20, 09:26:00,VALID,919.639,VALID,0,VALID,79.3519,VALID,515.963,VALID,23.3033,VALID,183,VALID,1.47274,
2008-02-20, 09:27:00,VALID,919.63,VALID,0,VALID,77.8921,VALID,505.4,VALID,23.2844,VALID,168,VALID,1.67862,
2008-02-20, 09:28:00,VALID,919.591,VALID,0,VALID,78.9005,VALID,493.106,VALID,23.1288,VALID,147,VALID,0.726381,
2008-02-20, 09:29:00,VALID,919.564,VALID,0,VALID,80.5485,VALID,484.429,VALID,23.1385,VALID,170,VALID,1.09236,
2008-02-20, 09:30:00,VALID,919.549,VALID,0,VALID,78.8446,VALID,491.782,VALID,23.1678,VALID,167,VALID,1.40718,
2008-02-20, 09:31:00,VALID,919.531,VALID,0,VALID,79.0429,VALID,466.99,VALID,23.0697,VALID,158,VALID,1.19684,
2008-02-20, 09:32:00,VALID,919.536,VALID,0,VALID,79.488,VALID,462.473,VALID,23.0668,VALID,153,VALID,1.10938,
2008-02-20, 09:33:00,VALID,919.523,VALID,0,VALID,79.2171,VALID,446.341,VALID,23.0963,VALID,165,VALID,0.678622,
2008-02-20, 09:34:00,VALID,919.512,VALID,0,VALID,79.2413,VALID,464.646,VALID,23.148,VALID,152,VALID,1.13118,
2008-02-20, 09:35:00,VALID,919.497,VALID,0,VALID,79.797,VALID,467.279,VALID,23.0866,VALID,160,VALID,1.10957,
2008-02-20, 09:36:00,VALID,919.493,VALID,0,VALID,79.1828,VALID,469.911,VALID,23.1061,VALID,197,VALID,1.14983,
2008-02-20, 09:37:00,VALID,919.477,VALID,0,VALID,78.7937,VALID,470.607,VALID,23.145,VALID,169,VALID,1.47674,
2008-02-20, 09:38:00,VALID,919.471,VALID,0,VALID,78.4173,VALID,477.212,VALID,23.1843,VALID,184,VALID,1.60082,
2008-02-20, 09:39:00,VALID,919.483,VALID,0,VALID,78.0231,VALID,476.278,VALID,23.2295,VALID,165,VALID,1.28792,
2008-02-20, 09:40:00,VALID,919.491,VALID,0,VALID,78.2062,VALID,487.655,VALID,23.2118,VALID,163,VALID,0.596591,
2008-02-20, 09:41:00,VALID,919.485,VALID,0,VALID,78.5801,VALID,490.355,VALID,23.3314,VALID,188,VALID,0.272396,
2008-02-20, 09:42:00,VALID,919.482,VALID,0,VALID,78.5089,VALID,484.854,VALID,23.5434,VALID,147,VALID,0.627841,
2008-02-20, 09:43:00,VALID,919.484,VALID,0,VALID,77.9201,VALID,473.544,VALID,23.6698,VALID,142,VALID,0.807664,
2008-02-20, 09:44:00,VALID,919.481,VALID,0,VALID,77.6404,VALID,466.362,VALID,23.7215,VALID,160,VALID,1.34096,
2008-02-20, 09:45:00,VALID,919.497,VALID,0,VALID,78.514,VALID,453.49,VALID,23.7185,VALID,69,VALID,1.23619,
2008-02-20, 09:46:00,VALID,919.507,VALID,0,VALID,78.8395,VALID,444.202,VALID,23.6441,VALID,49,VALID,0.736979,
2008-02-20, 09:47:00,VALID,919.534,VALID,0,VALID,78.3944,VALID,439.294,VALID,23.761,VALID,155,VALID,1.05742,
2008-02-20, 09:48:00,VALID,919.536,VALID,0,VALID,76.4311,VALID,440.687,VALID,23.7802,VALID,168,VALID,1.45458,
2008-02-20, 09:49:00,VALID,919.521,VALID,0,VALID,76.8863,VALID,449.737,VALID,23.686,VALID,196,VALID,0.76181,
2008-02-20, 09:50:00,VALID,919.509,VALID,0,VALID,77.1394,VALID,456.801,VALID,23.7315,VALID,178,VALID,1.18173,
2008-02-20, 09:51:00,VALID,919.498,VALID,0,VALID,77.3949,VALID,468.688,VALID,23.7483,VALID,148,VALID,1.75236,
2008-02-20, 09:52:00,VALID,919.524,VALID,0,VALID,76.7146,VALID,457.175,VALID,23.4914,VALID,165,VALID,1.54833,
2008-02-20, 09:53:00,VALID,919.531,VALID,0,VALID,77.9646,VALID,452.93,VALID,23.3647,VALID,158,VALID,1.10366,
2008-02-20, 09:54:00,VALID,919.536,VALID,0,VALID,78.3792,VALID,454.611,VALID,23.3482,VALID,180,VALID,0.612216,
2008-02-20, 09:55:00,VALID,919.555,VALID,0,VALID,77.7599,VALID,463.967,VALID,23.4359,VALID,198,VALID,0.955031,
2008-02-20, 09:56:00,VALID,919.536,VALID,0,VALID,78.088,VALID,475.939,VALID,23.4885,VALID,136,VALID,1.19077,
2008-02-20, 09:57:00,VALID,919.541,VALID,0,VALID,78.6615,VALID,491.408,VALID,23.391,VALID,163,VALID,1.79855,
2008-02-20, 09:58:00,VALID,919.563,VALID,0,VALID,79.2998,VALID,502.48,VALID,23.3774,VALID,206,VALID,1.19062,
2008-02-20, 09:59:00,VALID,919.573,VALID,0,VALID,77.8985,VALID,524.045,VALID,23.4976,VALID,205,VALID,1.52123,
2008-02-20, 10:00:00,VALID,919.582,VALID,0,VALID,76.5468,VALID,550.417,VALID,23.6382,VALID,199,VALID,1.28582,
2008-02-20, 10:01:00,VALID,919.573,VALID,0,VALID,76.7083,VALID,585.754,VALID,23.8124,VALID,194,VALID,0.965588,
2008-02-20, 10:02:00,VALID,919.576,VALID,0,VALID,76.6002,VALID,595.093,VALID,24.0017,VALID,202,VALID,0.76508,
2008-02-20, 10:03:00,VALID,919.562,VALID,0,VALID,76.5277,VALID,608.253,VALID,24.1473,VALID,180,VALID,1.96893,
2008-02-20, 10:04:00,VALID,919.576,VALID,0,VALID,77.1915,VALID,636.289,VALID,24.1311,VALID,188,VALID,1.05705,
2008-02-20, 10:05:00,VALID,919.586,VALID,0,VALID,75.8652,VALID,658.822,VALID,24.1668,VALID,199,VALID,1.49688,
2008-02-20, 10:06:00,VALID,919.612,VALID,0,VALID,76.2912,VALID,643.557,VALID,24.2525,VALID,228,VALID,0.642287,
2008-02-20, 10:07:00,VALID,919.621,VALID,0,VALID,74.2795,VALID,627.187,VALID,24.3237,VALID,186,VALID,2.54127,
2008-02-20, 10:08:00,VALID,919.609,VALID,0,VALID,74.174,VALID,607.948,VALID,24.194,VALID,159,VALID,1.88944,
2008-02-20, 10:09:00,VALID,919.58,VALID,0,VALID,76.0915,VALID,612.6,VALID,23.92,VALID,128,VALID,1.96035,
2008-02-20, 10:10:00,VALID,919.571,VALID,0,VALID,77.4852,VALID,635.762,VALID,23.8382,VALID,150,VALID,1.5125,
2008-02-20, 10:11:00,VALID,919.564,VALID,0,VALID,76.6332,VALID,614.91,VALID,23.8509,VALID,147,VALID,1.24386,
2008-02-20, 10:12:00,VALID,919.564,VALID,0,VALID,77.1851,VALID,666.871,VALID,23.9034,VALID,179,VALID,0.911044,
2008-02-20, 10:13:00,VALID,919.567,VALID,0,VALID,77.2233,VALID,686.671,VALID,24.0803,VALID,165,VALID,1.34598,
2008-02-20, 10:14:00,VALID,919.58,VALID,0,VALID,76.014,VALID,704.721,VALID,24.1875,VALID,163,VALID,1.28889,
2008-02-20, 10:15:00,VALID,919.582,VALID,0,VALID,76.6422,VALID,644.524,VALID,24.1128,VALID,95,VALID,1.52422,
2008-02-20, 10:16:00,VALID,919.6,VALID,0,VALID,76.8164,VALID,726.542,VALID,24.1362,VALID,162,VALID,1.38081,
2008-02-20, 10:17:00,VALID,919.605,VALID,0,VALID,76.2569,VALID,646.817,VALID,24.2723,VALID,125,VALID,0.980824,
2008-02-20, 10:18:00,VALID,919.632,VALID,0,VALID,75.9529,VALID,747.038,VALID,24.2496,VALID,119,VALID,1.87292,
2008-02-20, 10:19:00,VALID,919.644,VALID,0,VALID,73.8548,VALID,761.522,VALID,24.249,VALID,191,VALID,1.62333,
2008-02-20, 10:20:00,VALID,919.657,VALID,0,VALID,73.6462,VALID,777.281,VALID,24.2431,VALID,131,VALID,2.47545,
2008-02-20, 10:21:00,VALID,919.631,VALID,0,VALID,75.7177,VALID,750.468,VALID,24.0351,VALID,67,VALID,0.822027,
2008-02-20, 10:22:00,VALID,919.609,VALID,0,VALID,75.2574,VALID,756.36,VALID,24.2135,VALID,158,VALID,1.1439,
2008-02-20, 10:23:00,VALID,919.577,VALID,0,VALID,75.1353,VALID,775.039,VALID,24.4254,VALID,147,VALID,1.34502,
2008-02-20, 10:24:00,VALID,919.562,VALID,0,VALID,75.0196,VALID,763.645,VALID,24.2466,VALID,115,VALID,3.28888,
2008-02-20, 10:25:00,VALID,919.6,VALID,0,VALID,75.574,VALID,751.147,VALID,24.1362,VALID,141,VALID,1.61163,
2008-02-20, 10:26:00,VALID,919.577,VALID,0,VALID,75.3095,VALID,728.563,VALID,23.9867,VALID,109,VALID,2.47098,
2008-02-20, 10:27:00,VALID,919.565,VALID,0,VALID,75.3705,VALID,732.995,VALID,23.8568,VALID,115,VALID,1.64666,
2008-02-20, 10:28:00,VALID,919.549,VALID,0,VALID,76.707,VALID,751.724,VALID,23.873,VALID,89,VALID,1.29444,
2008-02-20, 10:29:00,VALID,919.531,VALID,0,VALID,78.6144,VALID,766.073,VALID,24.1557,VALID,95,VALID,0.815044,
2008-02-20, 10:30:00,VALID,919.517,VALID,0,VALID,75.4608,VALID,760.996,VALID,24.4933,VALID,153,VALID,1.40394,
2008-02-20, 10:31:00,VALID,919.49,VALID,0,VALID,74.3113,VALID,755.97,VALID,24.5456,VALID,146,VALID,1.69931,
2008-02-20, 10:32:00,VALID,919.473,VALID,0,VALID,74.8657,VALID,754.798,VALID,24.5751,VALID,171,VALID,1.52653,
2008-02-20, 10:33:00,VALID,919.458,VALID,0,VALID,71.8596,VALID,743.149,VALID,24.7704,VALID,201,VALID,1.36347,
2008-02-20, 10:34:00,VALID,919.429,VALID,0,VALID,72.0555,VALID,741.977,VALID,25.0441,VALID,195,VALID,1.62723,